Regional Weather Roundup
Issued by NWS

Home | Current Version | Previous Version | Graphics & Text | Print | Product List | Glossary On
Versions: 1 2 3 4 5 6 7 8 9 10 11 12 13 14 15 16 17 18 19 20 21 22 23 24 25 26 27 28 29 30 31 32 33 34 35 36 37 38 39 40 41 42 43 44 45 46 47 48 49 50
000
ASUS45 KBOU 011407
RWRCO

WEATHER ROUNDUP FOR COLORADO
NATIONAL WEATHER SERVICE DENVER/BOULDER CO
700 AM MST SUN MAR 01 2015

NOTE: "FAIR" INDICATES FEW OR NO CLOUDS BELOW 12000 FEET WITH NO
SIGNIFICANT WEATHER AND/OR OBSTRUCTIONS TO VISIBILITY.

COZ001>005-013-030-031-011500-
...NORTHWEST COLORADO...

CITY           SKY/WX    TMP DP  RH WIND       PRES   REMARKS
CRAIG          CLOUDY    20  16  84 SE3       30.09R
HAYDEN         CLOUDY    19  16  86 CALM      30.07R
MEEKER         LGT SNOW  23  20  88 SW3       30.05R FOG
MOUNT WERNER   NOT AVBL
STEAMBOAT SPGS CLOUDY    19  17  91 W3        30.05S
WALDEN         MOCLDY     5   1  85 CALM      30.01S
$$

COZ006>008-011-011500-
...WEST CENTRAL VALLEYS...

CITY           SKY/WX    TMP DP  RH WIND       PRES   REMARKS
GRAND JUNCTION CLOUDY    31  29  92 E7        30.04R WCI  24
MONTROSE       CLOUDY    29  26  89 SE12      30.06S WCI  19
EAGLE          MOCLDY    27  25  93 VRB7      30.05R WCI  19
RIFLE          CLOUDY    30  27  88 CALM      30.04R
DELTA          CLOUDY    32  31  96 NE3       30.06S
NUCLA          CLOUDY    30  28  93 E5        30.09R WCI  25
$$

COZ017>023-064>068-011500-
...SOUTHWEST COLORADO...

CITY           SKY/WX    TMP DP  RH WIND       PRES   REMARKS
DURANGO        LGT SNOW  30  30 100 NE5       30.06S VSB 3/4 WCI  25
CORTEZ         LGT SNOW  33  33 100 CALM      30.06R FOG
PAGOSA SPRINGS LGT SNOW  31  31 100 CALM      30.07R
TELLURIDE      LGT SNOW  25  24  96 SE3       30.06R
WOLF CREEK PAS   N/A     16  16 100 SW12      30.08R WCI   3
$$

COZ009-010-012-014-032>034-037-058>063-011500-
...CENTRAL COLORADO...

CITY           SKY/WX    TMP DP  RH WIND       PRES   REMARKS
ASPEN          FLURRIES  25  23  92 S3        30.02R
BUENA VISTA    CLOUDY    19  17  89 CALM      30.03R
COPPER MTN     NOT AVBL
BERTHOUD PASS  LGT SNOW   9   3  78 W17G26    29.97R WCI -10
COTTONWOOD PAS CLOUDY    27  19  74 SE3       30.01R
GUNNISON       MOCLDY    16   9  73 CALM      30.09R
KREMMLING      LGT SNOW  23  21  93 CALM      30.04R
LEADVILLE      CLOUDY    15  11  83 NE7       29.99R WCI   5
SALIDA         CLOUDY    20  16  85 NW3       30.12R
SUNLIGHT       CLOUDY    19  18  93 CALM        N/A
WILKERSON PASS MOCLDY    16  12  86 SW7       30.02R WCI   6
$$

COZ069>075-011500-
...SAN LUIS VALLEY/SANGRE DE CRISTO MOUNTAINS...

CITY           SKY/WX    TMP DP  RH WIND       PRES   REMARKS
ALAMOSA        CLOUDY    19  16  88 CALM      30.08R
LA VETA PASS   FLURRIES  23  21  93 S12G20    30.03S WCI  12
SAGUACHE       CLOUDY    21  18  86 CALM      30.09R
$$

COZ035-036-038>040-011500-
...NORTHERN COLORADO FRONT RANGE...

CITY           SKY/WX    TMP DP  RH WIND       PRES   REMARKS
DENVER INTL AP MOCLDY    11   7  84 SW8       30.14R FOG     WCI  -1
DMNS CITY PARK   N/A     16  11  82 SE1       30.13F
AURORA         MOCLDY    11   8  87 S5        30.12R WCI   3
FRONT RANGE AP MOCLDY    16  10  79 SW8       30.14  WCI   5
ERIE MUNI ARPT PTCLDY    11   9  92 CALM      30.16R FOG
BOULDER MUN AP   N/A     19  18  93 CALM      30.14R FOG
CENTENNIAL     LGT SNOW  16  13  88 NW3       30.10S FOG
BROOMFIELD     MOCLDY    18  16  93 CALM      30.13R FOG
FORT COLLINS     N/A     16  14  93 CALM      30.16S VSB 1/4
LONGMONT       PTCLDY    13  10  89 CALM      30.18R FOG
$$

COZ041-046-047-076>085-087-088-011500-
...PIKES PEAK/PALMER DIVIDE AND SOUTHERN FOOTHILLS...

CITY           SKY/WX    TMP DP  RH WIND       PRES   REMARKS
COLO. SPRINGS  PTCLDY    11   8  88 W5        30.08R FOG     WCI   3
A. F. ACADEMY  PTCLDY    12   8  85 N6        30.06R WCI   2
ELLICOTT       NOT AVBL
FALCON         PTCLDY    10   8  92 NW3       30.06R FOG
FORT CARSON    PTCLDY    12   9  87 NW2       30.08R
LIMON          CLOUDY    14  11  87 NW6       30.13R WCI   5
MONUMENT HILL  SNOW      10  10 100 W5        30.05R VSB 1/4 WCI   2
TRINIDAD       CLOUDY    16  13  88 W5        30.08R FOG     WCI   9
$$

COZ042>045-048>051-090-091-011500-
...NORTHEAST COLORADO...

CITY           SKY/WX    TMP DP  RH WIND       PRES   REMARKS
GREELEY ARPT   CLEAR     14   7  73 NW3       30.15S
AKRON          PTCLDY    13  12  96 N6        30.14R WCI   4
BURLINGTON     CLOUDY    17  13  84 W6        30.17R WCI   9
WRAY           PTCLDY    16  14  92 NW5       30.21R WCI   8
STERLING       PTCLDY    12   9  85 CALM      30.19R
HOLYOKE        NOT AVBL
FORT MORGAN    PTCLDY    15  12  88 N8        30.17S WCI   4
$$

COZ086-089-092>099-011500-
...SOUTHEAST COLORADO...

CITY           SKY/WX    TMP DP  RH WIND       PRES   REMARKS
PUEBLO         PTCLDY    10   7  87 W5        30.15R WCI   2
LA JUNTA       MOCLDY    16  12  84 W3        30.19R
LAMAR          MOCLDY    20  18  92 W5        30.20R FOG     WCI  13
SPRINGFIELD      N/A     13  10  88 NW8       30.15R WCI   2
$$



USA.gov is the U.S. government's official web portal to all federal, state and local government web resources and services.